Find Starlink 35634

NORAD ID: 66173 Int'l Des: 2025-240 Owner: SPXS Country: US Constellation: starlink operational
LEOCIRCULAR

リアルタイム位置

3D地球を読み込み中...

Starlink 35634について

説明を読み込み中...

次回通過

Passes for default location (London). Set your location on the main map for personalized predictions.

高度履歴

Loading altitude history...

軌道要素

1 66173U 25240AD 26104.82710708 .00005668 00000-0 20336-3 0 9994
2 66173 53.1582 254.7724 0000985 88.7511 271.3602 15.30195779 27526
Epoch: Apr 14, 2026 • Age: 14 hours

現在のステータス

高度 478.5 km
速度 7.63 km/s
衛星直下点 41.05°N, 64.1°W
打ち上げ日 Oct 25, 2025
運用期間 0.4 years
タイプ internet

技術仕様

分類 Payload
質量 575.00 kg
乾燥質量 530.00 kg
総質量 575.00 kg
長さ 0.30 m
直径 4.10 m
スパン 29.00 m
形状 Box + pan
製造者 SPXS
バスタイプ Starlink V2MO
フェーズステータス In Orbit
所有者/国 SPXS/US

Most Searched